Agen Casino Online Bonus Rollingan 0.7%
Google+

Jackpot

Texas Poker Multi Jackpot System

Kini Telah hadir Jackpot SUPER ROYAL FLUSH

Kini Telah hadir Jackpot 2000 (khusus table VIP keatas).

Ikutilah global jackpot yang tersedia di system kami, dengan system jackpot terbaru dan pertama di indonesia, anda dapat membeli jackpot dengan harga 100 rupiah saja dan menangkan hadiahnya hingga puluhan juta rupiah.

Jackpot bukanlah suatu keharusan untuk dibeli, namun kami memberikan suatu fitur tambahan untuk member tercinta dari www.pokermi.net.

Terdapat tiga pilihan harga jackpot yang bisa anda beli yaitu :100,500,1000 dan 2000(khusus table VIP Keatas) rupiah.

Hadiah dari Multi jackpot system www.pokermi.net

  1. full house x 10 harga jackpot yang anda beli.
      (contoh:anda membeli 1000 maka:1000 X10 = 10.000)
  2. four of kind x 250 harga jackpot yang anda beli
      (contoh:anda membeli 1000 maka:1000 X250 = 250.000)
  3. Straight flush x 1200
      (contoh:anda membeli 1000 maka:1000 X1200 = 1.200.000)
  4. Royal flush x 10000 harga jackpot yang anda beli
      (contoh:anda membeli 1000 maka:1000 X10000 = 10.000.000)
  5. SUPER ROYAL FLUSH x 30000 harga jackpot yang anda beli
      (contoh:anda membeli 1000 maka:1000 X30000 = 30.000.000)

Kondisi kartu

  1. full house adalah kondisi kartu dimana kartu anda dan kartu tengah dengan total 7 kartu bisa mendapatkan nilai 5 kartu dengan kombinasi 1 tris(three of kind) dan 1 pair, contoh 3 kartu 10 dan 2 kartu 5
  2. Four of kind adalah kondisi kartu dimana kartu anda dan kartu tengah dengan total 7 kartu bisa mendapatkan nilai 5 kartu dengan kombinasi 4 kartu yang sama jumlah dan 1 kartu apapun juga contoh anda mendapatkan 4 buah kartu angka 3 dan 1 kartu apapun.
  3. Staright flush adalah kondisi kartu dimana kartu anda dan kartu tengah dengan total 7 kartu bisa mendapatkan nilai 5 kartu dengan kombinasi seri / staright dengan kembang yang sama contoh : urutan kartu dari angka 5, 6, 7, 8 , 9 10 dengan kembang yg sama misalnya as hati
  4. Royal flush adalah kondisi kartu dimana kartu anda dan kartu tengah dengan total 7 kartu bisa mendapatkan nilai 5 kartu dengan kombinasi seri / staright dengan kembang yang sama tetapi kartu tersebut haruslah dimulai dari 10. contoh 10, Queen, Jack, King dan aces dengan kembang yang sama
  5. Super Royal flush adalah kondisi kartu dimana Kedua kartu anda digabung dengan 3 kartu pertama meja haruslah royal flush. contoh kartu anda 10,Queen kembang sama dan 3 kartu pertama meja adalah Jack, King dan aces dengan kembang yang sama

Demikian adalah penjelasan dari Multi Jackpot www.pokermi.net terima kasih dan selamat bermain salam hoki dari kami

Texas Poker Jackpot Winner

TOP SUPER ROYAL FLUSH
No.TanggalNamaPriceWin
123/03 02:31SUTO86Super Royal flush15,000,000
223/03 00:43B73E5C3DSuper Royal flush3,000,000
322/03 19:42POWER_12Super Royal flush3,000,000
422/03 10:47ARGHAN9Super Royal flush3,000,000
521/03 23:57YOULOSEBROSuper Royal flush15,000,000
TOP ROYAL FLUSH
No.TanggalNamaPriceWin
123/03 05:03KUPLE123Royal flush5,000,000
223/03 04:51O7IHL9UN8TRoyal flush1,000,000
323/03 04:44NDUT0707Royal flush5,000,000
423/03 04:21KIPER_17Royal flush1,000,000
523/03 03:56KKCHANRoyal flush5,000,000
TOP STRAIGHT FLUSH
No.TanggalNamaPriceWin
123/03 05:03ENERGEN46Straight Flush120,000
223/03 05:03QW3GMXQNXCStraight Flush120,000
323/03 05:01YANI82Straight Flush600,000
423/03 04:57BABON11XStraight Flush600,000
523/03 04:56RUDIJAKAStraight Flush120,000
LATEST JACKPOT
No.TanggalNamaPriceWin
123/03 05:03PROF_GFull House10,000
223/03 05:03DIAMOONFull House5,000
323/03 05:03ENERGEN46Straight Flush120,000
423/03 05:03FOVIEZFull House1,000
523/03 05:03YAYU250590Full House5,000
623/03 05:03SEKOP001Full House10,000
723/03 05:03QW3GMXQNXCStraight Flush120,000
823/03 05:03VEN99Full House1,000
923/03 05:03AD224JGFTLFull House5,000
1023/03 05:03CALO812Full House5,000
1123/03 05:03KEBO555Full House5,000
1223/03 05:03BLAUGRANA2Full House5,000
1323/03 05:03JON74Full House5,000
1423/03 05:03AKQJ10VOFour Of A Kind250,000
1523/03 05:03KUPLE123Royal flush5,000,000
1623/03 05:03PIETOKIEFull House1,000
1723/03 05:03FEBYSUKMAFull House1,000
1823/03 05:03HOPP089Full House5,000
1923/03 05:03EDO2017Full House10,000
2023/03 05:03CAUNKFull House1,000
2123/03 05:03ROJI_RRFull House5,000
2223/03 05:03CHEPUHE77Full House1,000
2323/03 05:03HELLOKITTIFull House10,000
2423/03 05:03EDELL77Full House1,000
2523/03 05:02HUGATFull House5,000
2623/03 05:02OMH0K1Full House5,000
2723/03 05:02HAMOHFull House10,000
2823/03 05:02LAWEH38Full House5,000
2923/03 05:02B4N6S4TTFull House1,000
3023/03 05:02BLUEBOBFull House5,000
3123/03 05:02BUKIN87Full House5,000
3223/03 05:02SACKTYFull House10,000
3323/03 05:02K3LABAI123Full House1,000
3423/03 05:02RIKY8889Full House10,000
3523/03 05:02FAMO99Four Of A Kind125,000
3623/03 05:02JS259633Full House1,000
3723/03 05:02MARYANI299Full House20,000
3823/03 05:02X0VNPY47N4Full House1,000
3923/03 05:02CINGKER76Full House5,000
4023/03 05:02QIANG99Full House10,000
4123/03 05:02ASUSLAHFull House5,000
4223/03 05:02ASMAT59Four Of A Kind25,000
4323/03 05:02KRESNA73Full House10,000
4423/03 05:02AUTOMAXFull House1,000
4523/03 05:02JETIFull House1,000
4623/03 05:02BANNER1974Full House1,000
4723/03 05:02WADUK089Full House5,000
4823/03 05:02RSRS20Four Of A Kind125,000
4923/03 05:02GTYXFHLBHMFull House5,000
5023/03 05:02TEMPOER888Full House10,000

Domino Multi Jackpot System

Ikutilah global jackpot yang tersedia di system kami, dengan system jackpot terbaru dan pertama di indonesia, anda dapat membeli jackpot dengan harga 100 rupiah saja dan menangkan hadiahnya hingga puluhan juta rupiah.

Jackpot bukanlah suatu keharusan untuk dibeli, namun kami memberikan suatu fitur tambahan untuk member tercinta dari www.pokermi.net.

Terdapat tiga pilihan harga jackpot yang bisa anda beli yaitu :100,500 dan 1000 rupiah.

Hadiah dari Multi jackpot system www.pokermi.net

  1. Murni Kecil x 50 harga jackpot yang anda beli.
      (contoh:anda membeli 1000 maka:1000 X 50 = 50.000)
  2. Murni Besar x 50 harga jackpot yang anda beli
      (contoh:anda membeli 1000 maka:1000 X 50 = 50.000)
  3. BALAK x 100 harga jackpot yang anda beli
      (contoh:anda membeli 1000 maka:1000 X 100 = 100.000)
  4. ENAM DEWA x 6666 harga jackpot yang anda beli
      (contoh:anda membeli 1000 maka:1000 X 6666 = 6.666.000)

Demikian adalah penjelasan dari Multi Jackpot www.pokermi.net terima kasih dan selamat bermain salam hoki dari kami

Domino Jackpot Winner

TOP ENAM DEWA
No.TanggalNamaPriceWin
123/03 04:17UNDHINK82murni enam6,666,000
223/03 03:11LETERBROmurni enam6,666,000
323/03 03:07ALDY31murni enam3,333,000
422/03 23:36QULHUWALAHmurni enam3,333,000
522/03 23:18ODALKONTOLmurni enam6,666,000
TOP BALAK
No.TanggalNamaPriceWin
123/03 04:58SBR96balak50,000
223/03 04:56AAAKENbalak100,000
323/03 04:54POKMAN22balak10,000
423/03 04:50Y3UUXUKU9Bbalak100,000
523/03 04:42TANG02balak100,000
LATEST JACKPOT
No.TanggalNamaPriceWin
123/03 05:03NYONGKImurni besar5,000
223/03 05:02ERIKSOPIANmurni besar5,000
323/03 05:01JK7EJO19K8murni besar25,000
423/03 05:01FXGRLSmurni besar5,000
523/03 04:58SBR96balak50,000
623/03 04:56SYAFUTRA10murni kecil5,000
723/03 04:56AAAKENbalak100,000
823/03 04:56BOLLEMmurni kecil50,000
923/03 04:55JINKAKU9murni kecil5,000
1023/03 04:54TOLETOLE99murni kecil25,000
1123/03 04:54POKMAN22balak10,000
1223/03 04:50Y3UUXUKU9Bbalak100,000
1323/03 04:47AVANZAQWmurni kecil5,000
1423/03 04:46TANG02murni besar50,000
1523/03 04:45KLOL99murni kecil5,000
1623/03 04:43BIETVILLmurni kecil25,000
1723/03 04:42TANG02balak100,000
1823/03 04:42VLIHMDUAYmurni kecil25,000
1923/03 04:41JAYA0512murni besar50,000
2023/03 04:40BK2BTTCWUYmurni kecil50,000
2123/03 04:40PLERITAMmurni kecil25,000
2223/03 04:40OCAM77murni kecil25,000
2323/03 04:39L4THIF4H09murni kecil25,000
2423/03 04:38SUCIGAULmurni besar25,000
2523/03 04:38VERO_JSmurni besar50,000
2623/03 04:34VERDINANDmurni kecil25,000
2723/03 04:34BELIZ696murni besar5,000
2823/03 04:34SAMSUNG112murni besar5,000
2923/03 04:33VERO_JSbalak100,000
3023/03 04:31KIEROENmurni besar25,000
3123/03 04:31BOLLEMmurni kecil50,000
3223/03 04:30V1DAmurni kecil50,000
3323/03 04:29BEDEL12murni besar50,000
3423/03 04:29VERO_JSmurni kecil50,000
3523/03 04:29A11Dmurni besar5,000
3623/03 04:28DARSOXXXmurni besar25,000
3723/03 04:27VLIHMDUAYmurni kecil25,000
3823/03 04:24BE8797NJmurni besar25,000
3923/03 04:23K3BAR66murni besar5,000
4023/03 04:23RASMIN1balak100,000
4123/03 04:23GECORmurni besar25,000
4223/03 04:23ROJOOO3balak10,000
4323/03 04:22DELLA0889murni kecil50,000
4423/03 04:22RFFAHmurni kecil5,000
4523/03 04:20BRAVO85murni kecil25,000
4623/03 04:19V1DAmurni besar50,000
4723/03 04:19SUCIGAULmurni besar25,000
4823/03 04:18W90murni kecil25,000
4923/03 04:17ASIKJRPOTTmurni besar50,000
5023/03 04:17UNDHINK82murni enam6,666,000

Ceme Multi Jackpot System

Jackpot dilihat dari gabungan kartu pemain dengan kartu bandar. Bandar harus membeli jackpot sebanyak jumlah player yang sedang duduk. Sebagai contoh bila terdapat 3 pemain duduk bermain, dan bandar memutuskan untuk membeli jackpot Rp 1.000, maka pada periode tersebut bandar akan membeli jackpot sebanyak 3xRp1.000 = Rp3.000.

Jackpot bukanlah suatu keharusan untuk dibeli, namun kami memberikan suatu fitur tambahan untuk member tercinta dari www.pokermi.net.

Terdapat tiga pilihan harga jackpot yang bisa anda beli yaitu :100,500 dan 1000 rupiah.

Hadiah dari Multi jackpot system www.pokermi.net

  1. Murni Kecil x 50 harga jackpot yang anda beli.
      (contoh:anda membeli 1000 maka:1000 X 50 = 50.000)
  2. Murni Besar x 50 harga jackpot yang anda beli
      (contoh:anda membeli 1000 maka:1000 X 50 = 50.000)
  3. BALAK x 200 harga jackpot yang anda beli
      (contoh:anda membeli 1000 maka:1000 X 200 = 200.000)
  4. ENAM DEWA x 6666 harga jackpot yang anda beli
      (contoh:anda membeli 1000 maka:1000 X 6666 = 6.666.000)

Demikian adalah penjelasan dari Multi Jackpot www.pokermi.net terima kasih dan selamat bermain salam hoki dari kami

Ceme Jackpot Winner

TOP ENAM DEWA
No.TanggalNamaPriceWin
123/03 04:41LAMAJANGmurni enam6,666,000
223/03 04:36CARMENBULEmurni enam6,666,000
323/03 04:36BAGAS998murni enam3,333,000
423/03 04:21DARREN14murni enam6,666,000
523/03 04:20OSHIEN91murni enam6,666,000
TOP BALAK
No.TanggalNamaPriceWin
123/03 05:01TANTRA67balak200,000
223/03 05:01LACOR12balak100,000
323/03 04:57SIHIRHUJANbalak100,000
423/03 04:57UBUN22balak100,000
523/03 04:55AMBONAEbalak100,000
LATEST JACKPOT
No.TanggalNamaPriceWin
123/03 05:03RA6317murni kecil25,000
223/03 05:03WONG768murni kecil50,000
323/03 05:03PO_KEMONmurni besar5,000
423/03 05:03RAIQASYAHImurni kecil25,000
523/03 05:03ABHYZARDmurni kecil5,000
623/03 05:03ZHIV05murni kecil5,000
723/03 05:02GILANG909murni kecil5,000
823/03 05:02FENDI1908murni kecil5,000
923/03 05:02OIL21murni besar5,000
1023/03 05:02BAGAS998murni kecil25,000
1123/03 05:02LIFIT2112murni kecil25,000
1223/03 05:01DEXSA123murni kecil25,000
1323/03 05:01OIL21murni kecil5,000
1423/03 05:01OMBADAY8murni kecil25,000
1523/03 05:01TANTRA67balak200,000
1623/03 05:01LACOR12balak100,000
1723/03 05:01TANTRA67murni kecil50,000
1823/03 05:01RUMEDImurni kecil5,000
1923/03 05:01OPPOR8murni kecil50,000
2023/03 05:01ANGELMDP77murni besar5,000
2123/03 05:01CCHV4E3LURmurni besar25,000
2223/03 05:00GILANG909murni kecil5,000
2323/03 05:00BORAKS23murni kecil50,000
2423/03 05:00SIPOLEMmurni kecil5,000
2523/03 05:00BORAKS23murni kecil50,000
2623/03 05:00BAGAS998murni besar25,000
2723/03 05:00SEUNGITmurni besar50,000
2823/03 05:00SISAR07murni kecil50,000
2923/03 05:00MENDOZ48murni kecil25,000
3023/03 05:00KROYOTGmurni besar5,000
3123/03 04:59RMR11murni besar50,000
3223/03 04:59AMOXANONmurni besar50,000
3323/03 04:59WENDY11murni besar50,000
3423/03 04:59LXY8O2RA9Amurni besar5,000
3523/03 04:59P0K3R5Umurni besar50,000
3623/03 04:58GEYYmurni kecil5,000
3723/03 04:58RA6317murni kecil25,000
3823/03 04:58YANTOS11murni besar50,000
3923/03 04:58MAWAR28029murni kecil5,000
4023/03 04:57SIHIRHUJANbalak100,000
4123/03 04:57LALAJU99murni besar25,000
4223/03 04:57UBUN22balak100,000
4323/03 04:57HOKITINOmurni besar5,000
4423/03 04:56KAZEO777murni kecil25,000
4523/03 04:56YAS29murni kecil5,000
4623/03 04:56NAUFAL111murni besar50,000
4723/03 04:56JP_DIMANAmurni besar50,000
4823/03 04:56WENDY11murni besar50,000
4923/03 04:56BKL305murni besar50,000
5023/03 04:55NURIAWANmurni kecil5,000